Location: Carrizalito
(10.3833°N, 67.0217°W)
Time: 14:00:57
(UTC+00:00)

CUTE-I - Visible Passes

Search period start: 27 March 2023 00:00
Search period end: 06 April 2023 00:00
Orbit: 809 x 823 km, 98.7° (Epoch: 26 March)

Date Brightness Start Highest point End Pass type
(mag) Time Alt. Az. Time Alt. Az. Time Alt. Az.
27 Mar ? 10:04:23 10° NNE 10:09:28 44° ESE 10:14:33 10° S visible
27 Mar ? 22:49:16 10° SSW 22:54:08 38° W 22:59:01 10° NW visible
28 Mar ? 09:43:17 10° NE 09:47:36 25° E 09:51:55 10° SSE visible
29 Mar ? 09:23:10 10° ENE 09:25:43 13° E 09:28:16 10° SE visible
30 Mar ? 23:25:30 10° SW 23:28:25 15° W 23:31:21 10° WNW visible
31 Mar ? 23:02:07 10° SSW 23:06:31 27° W 23:10:57 10° NW visible
01 Apr ? 09:55:10 10° NE 10:00:00 34° ESE 10:04:49 10° SSE visible
02 Apr ? 09:34:22 10° NE 09:38:07 19° E 09:41:50 10° SE visible
03 Apr ? 23:40:26 10° WSW 23:40:48 10° W 23:41:11 10° W visible
04 Apr ? 23:15:10 10° SW 23:18:53 20° W 23:22:38 10° NW visible
05 Apr ? 22:52:13 10° SSW 22:57:00 35° WSW 23:01:48 10° NW visible
